Location: Newark
(48.1500°N, 13.1167°E)
Time: 18:45:45
(UTC+00:00)

Tiangong - Pass Details

Date: 28 September 2021
Orbit: 382 x 385 km, 41.5° (Epoch: 16 October)

Event Time Altitude Azimuth Distance (km) Brightness Sun altitude
Exits shadow 03:36:20 11° 188° (S) 1,365 3.6 -15.1°
Maximum altitude 03:37:50 13° 159° (SSE) 1,208 3.6 -14.8°
Drops below altitude 10° 03:39:28 10° 128° (SE) 1,397 4.4 -14.6°
Sets 03:42:18 0° 100° (E) 2,251 6.3 -14.1°
